Weather in Gundorovskiy

Russia / Rostov Oblast     46°46′50″N   41°53′39″E
temp.,
°C
wind,
m/s
gust,
m/s
humid.,
%
clouds,
%
prec.,
mm/h
press.,
hPa
HPBL,
m
2 march, tue
tue200:00+1w228696 0.0 102853
03:000nw239396 0.0 1028132
06:00−1wnw239396 0.0 1028220
09:00+1wsw358490 0.0 1028450
12:00+5wsw686751 0.0 10251243
15:00+6w8115650 0.1 10231437
18:00+4wsw6126886 0.0 1021783
21:00+2w8147092 0.0 1020807
3 march, wed
wed300:00+1wsw81577100 0.0 1018826
03:00+2wsw10178498 0.0 1016923
06:00+1w101696100 1.3 1014987
09:00+1wnw71197100 3.4 1014608
12:00+1wnw61096100 0.4 1016625
15:00+4nw796698 0.8 10181375
18:00+1wnw5107493 0.1 1020485
21:00−1nw4107776 0.2 1023371
4 march, thu
thu400:00−2wnw48780 0.0 1025282
03:00−2w36810 0.0 1026182
06:00−2w36790 0.0 1026177
09:00+1wsw57610 0.0 1026492
12:00+5wsw68490 0.0 1025941
15:00+6wsw68480 0.0 10231140
18:00+2sw47680 0.0 1021103
21:00+1ssw48752 0.0 1021156
5 march, fri
fri500:000sw498112 0.0 1021168
03:000sw410836 0.0 1020239
06:000sw4108556 0.0 1019339
09:00+3sw6116830 0.0 1019569
12:00+7sw811570 0.0 10181067
15:00+9sw710510 0.0 10171197
18:00+5sw35660 0.0 101683
21:00+4ssw511780 0.0 1016247
6 march, sat
sat600:00+3ssw51183100 0.0 1016335
03:00+1ssw488981 0.0 1015163
06:00+1ssw41183100 0.0 1014263
09:00+5wsw6156994 0.0 1014793
12:00+9w7116299 0.0 10131136
15:00+10w71065100 0.0 10121291
18:00+6nw5889100 0.4 1012436
21:00+1n71096100 5.1 1013405